SCP
0 0 0 0 0 0 0 0 0 0 0 0 0 0 0 0 0 0 0 0 0 0 0 0 0 0 0 0 0 0 0 0 0 0 0 0 0 0 0 0 0 0 0 0
0 0 0 0 0 0 0 0 0 0 0 0 0 0 0 0 0 0 0 0 0 0 0 0 0 0 0 0 0 0 0 0 0 0 0 0 0 0 0 0 0 0 0 0
0 0 0 0 0 0 0 0 0 0 0 0 0 0 0 0 0 0 0 0 0 0 0 0 0 0 0 0 0 0 0 0 0 0 0 0 0 0 0 0 0 0 0 0
0 0 0 0 0 0 0 0 0 0 0 0 0 0 0 0 0 0 0 0 0 0 0 0 0 0 0 0 0 0 0 0 0 0 0 0 0 0 0 0 0 0 0 0
0 0 0 0 0 0 0 0 0 0 0 0 0 0 0 0 0 0 0 0 0 0 0 0 0 0 0 0 0 0 0 0 0 0 0 0 0 0 0 0 0 0 0 0
0 0 0 0 0 0 0 0 0 0 0 0 0 0 0 0 0 0 0 0 0 0 0 0 0 0 0 0 0 0 0 0 0 0 0 0 0 0 0 0 0 0 0 0
0 0 0 0 0 0 0 0 0 0 0 0 0 0 0 0 0 0 0 0 0 0 0 0 0 0 0 0 0 0 0 0 0 0 0 0 0 0 0 0 0 0 0 0
0 0 0 0 0 0 0 0 0 0 0 0 0 0 0 0 0 0 0 0 0 0 0 0 0 0 0 0 0 0 0 0 0 0 0 0 0 0 0 0 0 0 0 0
0 0 0 0 0 0 0 0 0 0 0 0 0 0 0 0 0 0 0 0 0 0 0 0 0 0 0 0 0 0 0 0 0 0 0 0 0 0 0 0 0 0 0 0
0 0 0 0 0 0 0 0 0 0 0 0 0 0 0 0 0 0 0 0 0 0 0 0 0 0 0 0 0 0 0 0 0 0 0 0 0 0 0 0 0 0 0 0
0 0 0 0 0 0 0 0 0 0 0 0 0 0 0 0 0 0 0 0 0 0 0 0 0 0 0 0 0 0 0 0 0 0 0 0 0 0 0 0 0 0 0 0
0 0 0 0 0 0 0 0 0 0 0 0 0 0 0 0 0 0 0 0 0 0 0 0 0 0 0 0 0 0 0 0 0 0 0 0 0 0 0 0 0 0 0 0
0 0 0 0 0 0 0 0 0 0 0 0 0 0 0 0 0 0 0 0 0 0 0 0 0 0 0 0 0 0 0 0 0 0 0 0 0 0 0 0 0 0 -0 -0
0 0 0 0 0 0 0 0 0 0 0 0 0 0 0 0 0 0 0 0 0 0 0 0 0 0 0 0 0 0 0 0 0 0 0 0 0 0 0 0 0 -0 -0 -0
0 0 0 0 0 0 0 0 0 0 0 0 0 0 0 0 0 0 0 0 0 0 0 0 0 0 0 0 0 0 0 0 0 0 0 0 0 0 0 0 0 0 0 0
0 0 0 0 0 0 0 0 0 0 0 0 0 0 0 0 0 0 0 0 0 0 0 0 0 0 0 0 0 0 0 0 0 0 0 0 0 0 0 0 0 0 0 0
0 0 0 0 0 0 0 0 0 0 0 0 0 0 0 0 0 0 0 0 0 0 0 0 0 0 0 0 0 0 0 0 0 0 0 0 0 0 0 0 0 0 0 0
0 0 0 0 0 0 0 0 0 0 0 0 0 0 0 0 0 0 0 0 0 0 0 0 0 0 0 0 0 0 0 0 0 0 0 0 0 0 0 0 0 0 0 0
0 0 0 0 0 0 0 0 0 0 0 0 0 0 0 0 0 0 0 0 0 0 0 0 0 0 -0 0 0 0 0 0 0 0 0 0 0 0 0 0 0 0 0 0
0 0 0 0 0 0 0 0 0 0 0 0 0 0 0 0 0 0 0 0 0 0 0 0 0 0 0 0 0 0 0 0 0 0 0 0 0 0 0 0 0 0 0 0
0 0 0 0 0 0 0 0 0 0 0 0 0 0 0 0 0 0 0 0 0 0 0 0 0 0 0 0 0 0 0 0 0 0 0 0 0 0 0 0 0 0 0 0
0 0 0 0 0 0 0 0 0 0 0 0 0 0 0 0 0 0 0 -0 0 0 0 0 0 0 0 0 0 0 -0 -0 -0 0 0 0 0 0 0 0 0 0 0 0
0 0 0 0 0 0 0 0 0 0 0 0 0 0 0 0 0 0 0 -0 -0 0 0 0 0 0 0 0 0 -0 -0 -0 -0 0 0 0 0 0 0 0 0 0 0 0
0 0 0 0 0 0 0 0 0 0 0 0 0 0 0 0 0 0 0 -0 -0 -0 -0 0 0 0 0 0 0 -0 -0 -0 -0 -0 -0 0 0 0 0 0 0 0 0 0
0 0 0 0 0 0 0 0 0 0 0 0 0 0 0 0 0 0 0 -0 -0 -0 -0 0 0 0 0 0 0 0 -0 -0 -0 -0 -0 -0 -0 -0 -0 0 0 0 0 0
0 0 0 0 0 0 0 0 0 0 0 0 0 0 0 0 0 0 0 0 0 0 -0 -0 0 0 0 -0 0 0 0 -0 -0 -0 -0 -0 -0 -0 -0 -0 -0 0 0 0
0 0 0 0 0 0 0 0 0 0 0 0 0 0 0 0 0 0 0 0 0 0 0 0 0 0 0 -0 0 0 0 0 -0 -0 -0 -0 -0 -0 -0 -0 -0 -0 0 0
Wind_Speed
3 2 3 4 4 6 7 7 7 8 7 12 9 8 7 6 6 6 6 6 6 5 5 5 5 4 3 4 3 2 3 3 4 5 5 5 5 6 6 6 6 6 6 7
2 2 2 3 4 6 6 5 7 6 10 10 6 4 5 6 6 7 7 7 7 6 5 5 5 4 4 4 3 2 2 3 4 5 5 5 6 6 6 6 6 6 6 6
1 3 2 4 5 6 5 7 7 7 9 5 4 5 6 7 7 8 8 7 7 6 6 6 5 4 4 3 2 1 3 4 4 4 5 5 6 6 6 6 5 6 6 6
1 2 2 6 3 4 4 6 8 8 9 6 7 6 6 6 7 8 8 7 7 6 5 5 4 3 3 2 1 2 3 4 4 4 5 5 5 5 5 4 5 5 6 6
3 1 5 6 1 4 2 4 3 6 7 5 2 3 6 6 8 9 8 7 6 6 5 4 4 3 3 2 2 2 4 4 4 3 4 5 5 5 4 4 5 4 5 6
4 2 3 5 2 1 2 4 4 3 4 1 3 2 6 5 5 8 7 6 5 4 3 4 4 3 4 4 3 4 5 4 4 3 3 4 5 4 3 4 4 4 4 5
4 2 7 7 3 1 2 5 5 2 3 4 6 7 5 4 3 5 5 6 5 4 4 5 4 4 5 5 6 6 4 3 3 3 3 3 3 3 3 4 4 4 5 5
5 3 5 5 1 2 4 4 4 4 3 4 7 7 6 5 5 5 5 5 5 5 5 4 4 5 6 7 7 4 3 3 3 3 3 2 2 3 3 4 4 5 5 5
7 5 1 3 2 4 4 4 4 4 5 4 4 5 5 5 5 5 6 5 5 5 6 5 5 6 7 8 5 4 4 5 4 4 3 2 2 2 2 3 3 3 4 4
2 2 1 3 4 6 5 4 5 5 5 4 3 5 5 5 5 5 5 5 4 5 6 6 6 7 9 7 5 5 6 5 4 4 4 3 2 2 1 2 2 3 3 4
2 0 1 3 8 9 7 7 8 8 8 7 6 6 5 5 5 5 5 4 4 5 7 9 7 7 8 7 6 6 6 6 5 4 4 4 3 3 3 4 4 3 2 2
5 3 3 1 6 8 8 10 10 10 11 10 8 7 7 5 5 5 5 4 4 6 8 9 7 8 8 7 7 7 6 6 5 4 4 3 3 3 6 7 8 8 6 4
3 1 2 2 5 8 6 8 8 9 9 9 10 9 8 7 6 6 6 6 6 7 8 8 7 8 8 6 7 8 8 7 5 5 5 4 4 3 4 4 6 8 7 7
1 4 5 4 4 6 6 6 6 8 9 9 9 9 9 9 8 10 10 9 8 7 7 7 7 9 8 6 7 9 9 9 7 6 5 5 5 5 4 3 3 3 4 7
6 6 6 4 4 5 6 6 9 11 11 11 11 12 12 12 12 11 11 11 9 8 8 7 7 9 8 5 7 9 8 7 7 6 6 6 5 5 4 5 4 4 3 3
7 7 6 6 6 6 7 9 10 10 10 11 12 12 11 10 9 9 11 13 12 11 11 10 10 11 9 6 6 7 8 12 10 6 6 6 5 5 5 5 5 5 5 4
7 5 4 5 5 6 7 6 6 6 7 9 10 10 10 11 12 13 13 13 10 9 10 11 13 13 11 9 7 6 6 8 12 8 7 7 7 7 7 6 6 6 6 6
7 6 6 5 4 4 5 5 5 6 7 7 8 9 10 12 12 13 13 12 11 11 12 14 15 15 13 11 9 7 6 6 6 8 8 8 8 7 7 7 8 8 6 5
8 7 6 6 5 4 4 4 4 5 5 6 7 7 7 8 9 10 10 11 13 15 16 16 23 17 14 15 14 7 7 7 7 7 8 10 9 7 7 8 8 8 7 6
7 6 6 5 4 4 3 3 3 4 5 5 6 7 8 9 9 10 9 8 7 9 13 16 15 13 14 15 18 9 9 8 8 8 7 7 8 9 8 9 9 8 8 7
7 6 5 4 3 2 2 2 2 3 4 5 5 5 6 7 7 7 8 8 9 11 13 18 12 12 13 17 17 10 9 9 8 8 7 8 8 9 9 9 9 9 9 8
5 5 4 3 2 1 1 1 1 2 3 3 4 4 5 6 7 6 5 5 8 15 11 8 9 17 21 20 11 11 10 10 9 8 7 7 8 8 9 9 9 9 9 9
4 4 3 2 2 1 2 2 2 2 3 3 4 4 4 5 4 4 6 6 7 15 11 7 17 24 25 13 10 11 12 12 10 9 8 8 8 8 8 9 9 9 9 9
4 4 3 3 2 2 2 3 3 3 3 4 4 5 4 4 5 4 5 11 15 16 9 12 20 24 20 9 10 11 11 11 11 11 10 9 8 8 7 7 8 8 8 10
4 4 3 3 4 4 4 3 3 4 4 4 5 6 4 4 4 6 6 8 13 14 8 13 20 21 12 8 9 10 10 11 12 12 11 10 9 8 8 7 7 8 8 8
4 4 4 5 4 4 3 2 2 3 3 4 4 5 4 4 5 6 6 7 10 13 9 8 9 12 8 8 9 10 10 11 12 11 12 12 11 10 8 8 10 8 7 8
3 3 2 2 3 3 3 3 3 4 4 4 5 5 5 5 5 6 7 7 7 8 8 8 7 8 8 8 9 9 9 9 10 10 11 11 11 10 9 10 8 8 7 7
Wind_Direction
218 223 177 209 201 176 185 195 208 244 253 269 272 255 249 242 242 251 264 267 264 262 270 278 280 282 280 283 298 313 329 332 323 321 326 332 338 337 337 342 344 342 345 346
15 1 201 250 245 205 214 214 234 266 276 262 267 258 254 243 235 245 255 259 262 262 265 269 268 268 269 274 286 303 316 315 319 326 332 336 335 336 340 344 343 349 350 344
323 328 37 288 250 198 216 214 203 231 250 277 278 261 248 239 230 236 244 250 252 253 250 256 258 250 249 255 263 292 304 310 319 324 328 330 334 341 342 341 344 347 345 345
83 46 257 247 243 191 218 250 219 238 259 264 252 266 262 234 223 236 240 242 243 241 246 253 250 241 234 228 237 278 296 303 310 319 321 327 336 338 335 334 339 339 340 341
104 112 292 300 252 177 193 295 236 237 272 286 288 342 303 241 214 223 229 229 231 228 228 242 246 228 196 215 238 270 281 287 297 309 316 326 333 331 329 331 336 336 336 344
119 142 229 255 294 185 108 310 290 241 281 254 111 18 282 285 233 229 230 225 225 225 220 236 238 192 188 218 235 253 260 269 284 295 304 312 317 319 321 322 322 329 339 344
144 204 262 263 285 94 98 266 295 285 275 180 198 217 245 300 266 232 228 224 218 211 222 234 216 179 204 223 236 242 250 264 279 286 289 294 312 319 326 331 337 342 340 337
146 177 256 324 58 141 235 280 302 298 286 231 243 266 275 282 271 250 235 227 210 211 234 236 199 189 216 233 238 236 239 254 267 277 285 307 317 324 336 343 345 344 342 340
177 190 233 349 334 311 295 292 310 310 309 289 273 282 280 275 269 255 239 233 217 214 238 243 211 199 219 238 226 217 230 245 256 265 268 275 290 311 328 342 342 336 338 337
168 180 158 30 354 344 335 326 324 329 336 352 320 310 305 292 282 268 254 243 229 220 236 247 228 215 226 235 210 207 228 242 244 250 263 263 249 251 269 294 311 320 326 326
171 246 358 16 8 350 351 13 21 17 19 14 2 345 329 312 299 283 271 260 237 230 240 249 243 231 232 223 201 211 228 237 238 236 244 255 249 232 232 236 222 243 269 282
186 184 161 30 349 350 10 21 19 21 22 17 12 354 346 332 322 313 301 292 272 255 250 255 250 246 241 217 199 206 225 233 230 228 232 237 252 272 242 235 248 245 239 238
190 174 126 74 11 4 17 21 23 28 24 17 11 5 1 349 340 338 330 320 295 277 267 263 257 254 249 220 202 208 220 226 221 218 221 224 226 237 270 277 254 251 250 248
95 127 93 51 19 8 17 21 31 35 28 22 14 10 9 4 0 359 347 330 316 306 296 285 272 267 264 230 211 218 223 228 221 218 216 215 217 220 221 238 270 279 262 251
65 88 104 95 60 38 31 36 43 34 24 20 17 15 11 7 2 354 347 344 342 341 334 325 310 297 297 262 231 228 225 226 222 217 214 213 212 213 215 220 231 247 265 271
104 89 92 86 69 50 42 41 40 28 19 16 15 11 6 0 355 353 356 358 359 355 348 343 332 320 318 300 266 246 237 234 222 215 213 211 208 210 216 218 224 229 237 237
128 119 105 87 69 54 45 39 35 22 16 15 9 3 3 5 5 3 360 358 356 354 354 351 338 332 330 320 297 272 252 243 232 221 216 214 211 212 214 214 218 224 231 222
122 125 126 117 101 77 51 37 28 21 15 6 4 7 10 9 3 355 349 349 355 0 1 351 343 340 335 330 319 297 275 253 233 226 223 219 217 216 211 212 217 223 231 226
118 116 109 101 96 87 64 38 21 11 6 5 8 8 5 2 355 349 348 356 2 358 349 343 344 344 338 335 334 313 297 277 255 240 230 226 223 218 214 216 219 220 220 213
118 115 108 97 85 80 64 34 16 13 6 5 7 6 4 357 352 349 348 353 355 339 331 341 344 341 339 337 337 325 312 295 276 258 241 231 227 224 220 219 220 220 218 214
131 127 120 112 98 77 62 32 19 7 354 356 1 353 342 335 339 343 346 347 339 335 340 346 345 339 341 342 337 331 323 313 299 281 260 243 236 232 227 223 221 220 219 217
146 144 143 138 122 67 355 350 339 329 331 333 334 334 334 332 332 332 326 313 318 335 343 337 336 345 349 347 338 335 331 324 314 304 289 269 251 241 235 229 225 222 219 217
159 164 167 173 182 234 295 286 269 280 294 303 308 311 309 301 301 313 320 318 319 335 340 328 338 347 351 349 340 339 336 332 326 316 305 292 275 259 248 238 232 226 221 217
173 184 195 196 183 209 257 264 269 268 271 278 278 279 281 294 299 283 276 310 324 330 329 327 338 345 349 343 338 338 337 334 330 325 317 308 298 283 268 255 244 235 228 222
183 194 199 196 207 224 236 257 285 285 286 284 285 281 270 249 261 288 298 302 315 324 319 323 332 337 339 329 331 333 333 331 331 329 324 316 310 302 290 276 261 249 238 231
188 201 210 211 216 226 231 237 253 269 276 287 292 288 286 279 272 278 288 295 300 312 314 309 312 320 321 321 322 323 325 326 328 327 323 321 315 308 301 295 282 267 253 243
201 207 216 241 245 226 220 226 242 261 263 267 281 288 292 293 292 292 293 294 297 300 300 302 305 307 309 311 313 315 317 319 321 323 323 320 317 311 305 298 291 282 269 254